Norfolk, VA

9:58 AM EDT on September 27, 2016 (GMT -0400)
Norfolk International

Weather History for KORF - November, 2011

Change the Weather History Date:

Thursday, November 17, 2011

  Actual Average Record
Temperature  
Mean Temperature 51 °F 52 °F  
Max Temperature 58 °F 61 °F 77 °F (1993)
Min Temperature 43 °F 44 °F 24 °F (1967)
Degree Days  
Heating Degree Days 14 13  
Month to date heating degree days 161 179  
Since 1 July heating degree days 298 336  
Cooling Degree Days 0 0  
Month to date cooling degree days 14 1  
Year to date cooling degree days 2112 1621  
Moisture  
Dew Point 45 °F    
Average Humidity 73    
Maximum Humidity 93    
Minimum Humidity 53    
Precipitation  
Precipitation 0.28 in 0.10 in 0.82 in (1981)
Month to date precipitation 0.71 1.81  
Year to date precipitation 48.41 41.93  
Snow  
Snow 0.00 in 0.00 in 0.00 in (2002)
Month to date snowfall 0.0 0.0  
Since 1 July snowfall 0.0 0.0  
Snow Depth 0.00 in    
Sea Level Pressure  
Sea Level Pressure 29.93 in    
Wind  
Wind Speed 13 mph (North)    
Max Wind Speed 25 mph    
Max Gust Speed 33 mph    
Visibility 7 miles    
Events Rain    
T = Trace of Precipitation, MM = Missing Value Source: NWS Daily Summary

Daily Weather History Graph

Daily Weather History Graph

Search for Another Location

Airport or City:

Trip Planner

Search our weather history database for the weather conditions in past years. The results will help you decide how hot, cold, wet, or windy it might be!

Date:

Astronomy

Nov. 17, 2011 Rise Set
Actual Time 6:44 AM EST 4:54 PM EST
Civil Twilight 6:17 AM EST 5:21 PM EST
Nautical Twilight 5:45 AM EST 5:53 PM EST
Astronomical Twilight 5:14 AM EST 6:24 PM EST
Moon 11:08 PM EST (11/17) 11:55 AM EST (11/17)
Length of Visible Light 11h 04m
Length of Day
10h 09m
Waning Gibbous, 60% of the Moon is Illuminated
Nov 17
Waning Gibbous
Nov 18
Last Quarter
Nov 25
New
Dec 2
First Quarter
Dec 10
Full

Hourly Weather History & Observations

Time (EST) Temp. Windchill Dew Point Humidity Pressure Visibility Wind Dir Wind Speed Gust Speed Precip Events Conditions
12:04 AM 57.2 °F - 55.4 °F 94% 29.82 in 7.0 mi North 17.3 mph 21.9 mph 0.00 in Rain Light Rain
12:22 AM 57.2 °F - 55.4 °F 94% 29.83 in 1.2 mi North 15.0 mph 24.2 mph 0.01 in Rain Heavy Rain
12:33 AM 57.2 °F - 55.4 °F 94% 29.82 in 7.0 mi North 12.7 mph 20.7 mph 0.12 in Rain Light Rain
12:47 AM 57.2 °F - 55.4 °F 94% 29.82 in 7.0 mi North 11.5 mph 20.7 mph 0.13 in   Overcast
12:51 AM 57.9 °F - 55.0 °F 90% 29.83 in 7.0 mi North 10.4 mph 19.6 mph 0.13 in   Overcast
1:51 AM 57.9 °F - 54.0 °F 87% 29.84 in 10.0 mi North 12.7 mph - N/A   Overcast
2:51 AM 57.0 °F - 54.0 °F 89% 29.83 in 10.0 mi NNE 13.8 mph - 0.00 in   Overcast
3:51 AM 57.0 °F - 53.1 °F 87% 29.81 in 10.0 mi North 12.7 mph 21.9 mph N/A   Overcast
4:51 AM 55.9 °F - 52.0 °F 87% 29.83 in 4.0 mi North 12.7 mph 24.2 mph 0.00 in   Overcast
5:51 AM 55.0 °F - 51.1 °F 86% 29.81 in 10.0 mi North 18.4 mph 26.5 mph 0.01 in   Overcast
6:10 AM 55.4 °F - 51.8 °F 88% 29.83 in 10.0 mi North 16.1 mph 25.3 mph N/A   Overcast
6:51 AM 55.0 °F - 51.1 °F 86% 29.84 in 10.0 mi North 17.3 mph 29.9 mph 0.00 in   Light Drizzle
7:32 AM 55.4 °F - 51.8 °F 88% 29.84 in 6.0 mi North 18.4 mph 24.2 mph 0.00 in   Light Drizzle
7:44 AM 55.4 °F - 51.8 °F 88% 29.85 in 5.0 mi North 16.1 mph 29.9 mph 0.00 in   Light Drizzle
7:51 AM 54.0 °F - 51.1 °F 90% 29.85 in 5.0 mi North 18.4 mph - 0.00 in   Light Drizzle
8:18 AM 53.6 °F - 50.0 °F 88% 29.86 in 6.0 mi North 20.7 mph 31.1 mph 0.00 in   Light Drizzle
8:51 AM 53.1 °F - 50.0 °F 89% 29.85 in 4.0 mi NNE 19.6 mph 28.8 mph 0.00 in Rain Light Rain
9:23 AM 53.6 °F - 50.0 °F 88% 29.85 in 2.5 mi NNE 20.7 mph 26.5 mph 0.00 in Rain Light Rain
9:51 AM 52.0 °F - 48.9 °F 89% 29.85 in 2.0 mi North 17.3 mph 27.6 mph 0.00 in Rain Light Rain
10:51 AM 50.0 °F - 46.9 °F 89% 29.86 in 2.0 mi North 20.7 mph 26.5 mph 0.05 in Rain Light Rain
11:04 AM 48.2 °F - 44.6 °F 87% 29.87 in 2.0 mi NNW 13.8 mph 28.8 mph 0.00 in Rain Light Rain
11:51 AM 46.9 °F - 43.0 °F 86% 29.89 in 2.0 mi NNW 15.0 mph 26.5 mph 0.02 in Rain Light Rain
12:39 PM 46.4 °F 40.1 °F 42.8 °F 87% 29.92 in 4.0 mi NNW 15.0 mph 25.3 mph 0.03 in Rain Light Rain
12:51 PM 46.0 °F 39.0 °F 42.1 °F 86% 29.94 in 3.0 mi NNW 17.3 mph 24.2 mph 0.04 in Rain Rain
1:51 PM 44.1 °F 36.5 °F 39.9 °F 85% 29.94 in 7.0 mi NNW 17.3 mph 24.2 mph 0.03 in Rain Light Rain
2:44 PM 44.6 °F 37.4 °F 37.4 °F 76% 29.96 in 10.0 mi North 16.1 mph 27.6 mph 0.00 in   Overcast
2:51 PM 45.0 °F 38.2 °F 39.0 °F 80% 29.97 in 10.0 mi NNW 15.0 mph 23.0 mph 0.00 in   Overcast
3:45 PM 44.6 °F 40.2 °F 37.4 °F 76% 30.00 in 10.0 mi NNW 8.1 mph 17.3 mph N/A   Overcast
3:51 PM 45.0 °F 40.6 °F 37.9 °F 76% 30.00 in 10.0 mi NNW 8.1 mph - N/A   Overcast
4:51 PM 45.0 °F 41.8 °F 37.0 °F 74% 30.03 in 10.0 mi NW 5.8 mph - N/A   Mostly Cloudy
5:51 PM 45.0 °F 41.2 °F 37.0 °F 74% 30.08 in 10.0 mi Variable 6.9 mph - N/A   Scattered Clouds
6:51 PM 46.0 °F 42.5 °F 37.9 °F 73% 30.12 in 10.0 mi NW 6.9 mph - N/A   Partly Cloudy
7:51 PM 46.0 °F 41.4 °F 36.0 °F 68% 30.15 in 10.0 mi NW 9.2 mph - N/A   Scattered Clouds
8:51 PM 46.0 °F 43.9 °F 36.0 °F 68% 30.18 in 10.0 mi Variable 4.6 mph - N/A   Partly Cloudy
9:51 PM 45.0 °F 41.8 °F 33.1 °F 63% 30.20 in 10.0 mi Variable 5.8 mph - N/A   Partly Cloudy
10:51 PM 44.1 °F 39.5 °F 28.0 °F 53% 30.23 in 10.0 mi NW 8.1 mph 17.3 mph N/A   Partly Cloudy
11:51 PM 44.1 °F 40.8 °F 26.1 °F 49% 30.26 in 10.0 mi NW 5.8 mph - N/A   Partly Cloudy